Back to catalog

H-2A R/B

AliveHEO
NORAD 41037·ROCKET BODY·🇯🇵 Japan

Launched Nov 24, 2015 from Tanegashima Space Center

Loading…

Next Passes (next 24 hours)

TLE

FreshSource: Space-Track

Epoch: Sep 13, 2026, 19:56 UTC

1 41037U 15068B   26256.83085489 -.00000163  00000-0  00000-0 0  9992
2 41037  19.6094  53.5624 6469577 321.1102   6.6596  2.12564327 83932

Track H-2A R/B in real time with AllMySat

Download on the App Store